Location: *
(50.2903°S, 172.5375°W)
Time: 16:29:09
(UTC+00:00)

Cosmos 2369 Rocket - Pass Details

Date: 17 November 2019
Orbit: 830 x 851 km, 71.0° (Epoch: 07 December)

Event Time Altitude Azimuth Distance (km) Brightness Sun altitude
Exits shadow 13:32:36 - 13° (NNE) 2,575 4.3 -14.4°
Reaches altitude 10° 13:32:53 10° 14° (NNE) 2,481 4.2 -14.3°
Maximum altitude 13:37:52 32° 75° (ENE) 1,443 3.6 -13.9°
Drops below altitude 10° 13:42:54 10° 135° (SE) 2,514 6.1 -13.4°
Sets 13:45:36 0° 144° (SE) 3,458 7.5 -13.2°
